DW6047 Weather Reports


time (UTC)temp
C
wind
direction
speed
KPH
gust
KPH
rain 1hr
cm
rain 24hr
cm
rain mn
cm
humidity
%
barometer
mb
20260510180116 20 288 1.6 9.7 0.00 0.00 0.00 48 1014.8
20260510174514 20 281 0.0 3.2 0.00 0.00 0.00 45 1014.7
20260510173001 20 291 0.0 0.0 0.00 0.00 0.00 44 1014.9
20260510171518 20 284 1.6 8.0 0.00 0.00 0.00 44 1014.8
20260510170106 20 269 0.0 1.6 0.00 0.00 0.00 44 1014.7
20260510164509 20 283 0.0 0.0 0.00 0.00 0.00 44 1014.7
20260510163018 21 250 0.0 3.2 0.00 0.00 0.00 40 1014.5
20260510161528 20 277 0.0 14.5 0.00 0.00 0.00 38 1014.4
20260510160120 20 245 0.0 0.0 0.00 0.00 0.00 31 1014.2
20260510154501 19 245 0.0 6.4 0.00 0.00 0.00 25 1014.4
20260510153116 19 235 0.0 9.7 0.00 0.00 0.00 22 1014.4
20260510151603 18 249 1.6 9.7 0.00 0.00 0.00 18 1014.4
20260510150015 16 271 0.0 3.2 0.00 0.00 0.00 18 1014.3
20260510144616 18 272 0.0 6.4 0.00 0.00 0.00 18 1014.3
20260510143006 17 17 0.0 1.6 0.00 0.00 0.00 18 1014.3
20260510141513 16 17 0.0 0.0 0.00 0.00 0.00 18 1014.4
20260510140106 15 17 0.0 1.6 0.00 0.00 0.00 18 1014.3
20260510134508 14 17 0.0 0.0 0.00 0.00 0.00 18 1014.3
20260510133100 13 17 0.0 0.0 0.00 0.00 0.00 18 1014.2
20260510131604 13 17 0.0 0.0 0.00 0.00 0.00 18 1014.4
20260510130009 12 17 0.0 0.0 0.00 0.00 0.00 18 1014.4
20260510124521 12 17 0.0 3.2 0.00 0.00 0.00 18 1014.6
20260510123003 12 17 0.0 0.0 0.00 0.00 0.00 18 1014.5
20260510121509 12 17 0.0 0.0 0.00 0.00 0.00 18 1014.2
20260510120142 12 17 0.0 0.0 0.00 0.00 0.00 18 1014.0
20260510114520 12 17 0.0 0.0 0.00 0.00 0.00 18 1013.8
20260510113105 11 17 0.0 0.0 0.00 0.00 0.00 18 1013.4
20260510111518 11 17 0.0 0.0 0.00 0.00 0.00 18 1013.2
20260510110105 11 17 0.0 0.0 0.00 0.00 0.00 18 1012.9
20260510104519 11 17 0.0 0.0 0.00 0.00 0.00 18 1013.0
20260510103022 11 17 0.0 0.0 0.00 0.00 0.00 18 1013.3
20260510101529 11 17 0.0 0.0 0.00 0.00 0.00 18 1013.1
20260510100023 11 17 0.0 0.0 0.00 0.00 0.00 18 1012.8
20260510094516 11 17 0.0 0.0 0.00 0.00 0.00 18 1012.5
20260510093019 11 17 0.0 0.0 0.00 0.00 0.00 18 1012.5
20260510091557 11 17 0.0 0.0 0.00 0.00 0.00 18 1012.7
20260510090006 11 17 0.0 0.0 0.00 0.00 0.00 18 1012.7
20260510084542 11 17 0.0 0.0 0.00 0.00 0.00 18 1012.7
20260510083003 11 17 0.0 0.0 0.00 0.00 0.00 18 1012.6
20260510081530 11 17 0.0 0.0 0.00 0.00 0.00 18 1012.9
20260510080114 11 17 0.0 0.0 0.00 0.00 0.00 18 1012.8
20260510074508 11 17 0.0 1.6 0.00 0.00 0.00 18 1012.9
20260510073027 11 17 0.0 0.0 0.00 0.00 0.00 18 1012.6
20260510071526 11 17 0.0 0.0 0.00 0.00 0.00 18 1012.4
20260510070003 11 17 0.0 0.0 0.00 0.00 0.00 18 1012.1
20260510064518 11 17 0.0 0.0 0.00 0.00 0.00 18 1012.2
20260510063030 11 17 0.0 0.0 0.00 0.00 0.00 18 1012.5
20260510061510 11 17 0.0 0.0 0.00 0.00 0.00 18 1012.6
20260510060008 11 17 0.0 0.0 0.00 0.00 0.00 18 1012.7
20260510054523 11 17 0.0 0.0 0.00 0.00 0.00 18 1012.2
20260510053101 11 17 0.0 0.0 0.00 0.00 0.00 18 1012.1
20260510051527 11 17 0.0 0.0 0.00 0.00 0.00 18 1012.2
20260510050003 11 17 0.0 0.0 0.00 0.00 0.00 18 1012.3
20260510044500 11 17 0.0 0.0 0.00 0.00 0.00 18 1012.3
20260510043009 11 17 0.0 0.0 0.00 0.00 0.00 18 1012.4
20260510041532 11 17 0.0 0.0 0.00 0.00 0.00 18 1012.4
20260510040001 12 17 0.0 0.0 0.00 0.00 0.00 18 1012.3
20260510034513 12 17 0.0 0.0 0.00 0.00 0.00 18 1012.2
20260510033057 12 17 0.0 0.0 0.00 0.00 0.00 18 1012.3
20260510031515 12 17 0.0 0.0 0.00 0.00 0.00 18 1012.1
20260510030104 12 17 0.0 0.0 0.00 0.00 0.00 18 1012.3
20260510024531 12 17 0.0 0.0 0.00 0.00 0.00 18 1012.1
20260510023055 12 17 0.0 0.0 0.00 0.00 0.00 18 1012.1
20260510021559 13 17 0.0 0.0 0.00 0.00 0.00 18 1011.9
20260510020113 13 17 0.0 0.0 0.00 0.00 0.00 18 1011.9
20260510014600 13 17 0.0 0.0 0.00 0.00 0.00 18 1011.9
20260510013023 13 17 0.0 0.0 0.00 0.00 0.00 18 1011.9
20260510011600 13 17 0.0 0.0 0.00 0.00 0.00 18 1011.9
20260510010007 13 17 0.0 0.0 0.00 0.00 0.00 18 1011.6
20260510004515 13 17 0.0 0.0 0.00 0.00 0.00 18 1011.5
20260510003019 13 17 0.0 0.0 0.00 0.00 0.00 18 1011.2
20260510001555 13 17 0.0 0.0 0.00 0.00 0.00 18 1011.0
20260510000057 13 17 0.0 0.0 0.00 0.00 0.00 18 1010.9
20260509234613 13 17 0.0 0.0 0.00 0.00 0.00 18 1010.8
20260509233020 13 17 0.0 0.0 0.00 0.00 0.00 18 1010.9
20260509231606 13 17 0.0 0.0 0.00 0.00 0.00 18 1010.9
20260509230103 14 17 0.0 0.0 0.00 0.00 0.00 18 1010.8
20260509224507 15 17 0.0 0.0 0.00 0.00 0.00 18 1010.8
20260509223017 15 17 0.0 0.0 0.00 0.00 0.00 18 1010.9
20260509221525 15 17 0.0 0.0 0.00 0.00 0.00 18 1011.0
20260509220029 15 17 0.0 0.0 0.00 0.00 0.00 18 1011.0
20260509214505 15 17 0.0 0.0 0.00 0.00 0.00 18 1010.9
20260509213021 14 296 0.0 0.0 0.00 0.00 0.00 18 1010.9
20260509211559 15 296 0.0 0.0 0.00 0.00 0.00 18 1011.1
20260509210107 15 296 0.0 1.6 0.00 0.00 0.00 18 1011.3
20260509204506 15 32 0.0 0.0 0.00 0.00 0.00 18 1011.4
20260509203024 14 32 0.0 0.0 0.00 0.00 0.00 18 1011.4
20260509201515 14 32 0.0 0.0 0.00 0.00 0.00 18 1011.3
20260509200024 14 32 0.0 0.0 0.00 0.00 0.00 18 1011.4
20260509194601 13 32 0.0 0.0 0.00 0.00 0.00 18 1011.5
20260509193053 13 32 0.0 0.0 0.00 0.00 0.00 18 1011.7
20260509191501 13 254 0.0 0.0 0.00 0.00 0.00 18 1012.2
20260509190013 13 254 0.0 0.0 0.00 0.00 0.00 18 1012.6
20260509184507 13 254 0.0 0.0 0.00 0.00 0.00 18 1012.8
20260509183024 13 254 0.0 3.2 0.00 0.00 0.00 18 1012.8
20260509181557 14 254 0.0 0.0 0.00 0.00 0.00 18 1012.9